Le nostre stazioni meteo in Italia

Pubblicità
Il mio iltempo24.it
Cassley, Gran Bretagna (99003): Temperatura & dewpoint: 14.06.2019 23:00:00 - 20.06.2019 23:00:00 (BST)Cassley, Gran Bretagna (99003): precipitazioni: 14.06.2019 23:00:00 - 20.06.2019 23:00:00 (BST)
Data & Tempo tt [°C] td [°C] rr [mm]
20.06.2019 23:00:00 - - -
20.06.2019 22:00:00 9,2 7,2 0,8
20.06.2019 21:00:00 10,0 7,2 0,2
20.06.2019 20:00:00 10,6 7,6 0,2
20.06.2019 19:00:00 10,4 8,1 0,8
20.06.2019 18:00:00 11,7 6,9 0,0
20.06.2019 17:00:00 12,5 6,9 0,0
20.06.2019 16:00:00 11,5 7,0 0,2
20.06.2019 15:00:00 10,9 7,9 0,4
20.06.2019 14:00:00 10,7 8,9 0,6
20.06.2019 13:00:00 10,7 7,5 0,2
20.06.2019 12:00:00 12,9 7,5 0,4
20.06.2019 11:00:00 13,4 6,9 0,0
20.06.2019 10:00:00 11,2 7,5 0,0
20.06.2019 09:00:00 12,6 6,0 0,0
20.06.2019 08:00:00 11,3 6,8 0,0
20.06.2019 07:00:00 10,3 5,9 0,0
20.06.2019 06:00:00 7,7 5,9 0,0
20.06.2019 05:00:00 7,6 5,4 0,0
20.06.2019 04:00:00 6,0 4,0 0,0
20.06.2019 03:00:00 6,3 4,5 0,0
20.06.2019 02:00:00 7,3 5,2 0,0
20.06.2019 01:00:00 7,0 5,2 0,0
20.06.2019 00:00:00 8,2 5,9 0,0
19.06.2019 23:00:00 9,7 6,3 0,0
19.06.2019 22:00:00 10,4 6,7 0,0
19.06.2019 21:00:00 11,0 6,3 0,0
19.06.2019 20:00:00 13,9 6,7 0,0
19.06.2019 19:00:00 14,3 7,9 0,0
19.06.2019 18:00:00 14,2 7,8 0,0
19.06.2019 17:00:00 15,1 6,3 0,0
19.06.2019 16:00:00 15,1 8,3 0,2
19.06.2019 15:00:00 13,0 8,9 0,0
19.06.2019 14:00:00 14,0 8,9 0,0
19.06.2019 13:00:00 13,4 8,5 0,0
19.06.2019 12:00:00 14,6 9,8 0,0
19.06.2019 11:00:00 15,0 8,9 0,2
19.06.2019 10:00:00 13,0 8,3 0,0
19.06.2019 09:00:00 13,0 8,2 0,0
19.06.2019 08:00:00 12,4 8,3 0,0
19.06.2019 07:00:00 11,6 8,5 0,0
19.06.2019 06:00:00 11,1 8,2 0,0
19.06.2019 05:00:00 10,9 8,0 0,0
19.06.2019 04:00:00 10,8 8,2 0,0
19.06.2019 03:00:00 10,8 8,3 0,0
19.06.2019 02:00:00 11,2 8,1 0,0
19.06.2019 01:00:00 10,7 8,0 0,0
19.06.2019 00:00:00 11,6 7,9 0,0
18.06.2019 23:00:00 12,2 7,3 0,0
18.06.2019 22:00:00 12,4 7,8 0,0
18.06.2019 21:00:00 13,0 7,5 0,0
18.06.2019 20:00:00 13,2 7,8 0,0
18.06.2019 19:00:00 13,4 8,5 0,0
18.06.2019 18:00:00 12,8 8,8 0,2
18.06.2019 17:00:00 12,4 9,7 0,0
18.06.2019 16:00:00 12,7 10,0 0,6
18.06.2019 15:00:00 12,9 7,9 0,0
18.06.2019 14:00:00 12,6 8,7 0,0
18.06.2019 13:00:00 11,9 9,5 0,6
18.06.2019 12:00:00 12,3 8,9 2,2
18.06.2019 11:00:00 12,2 9,3 0,8
18.06.2019 10:00:00 11,2 8,3 0,4
18.06.2019 09:00:00 10,9 7,8 0,4
18.06.2019 08:00:00 10,2 8,0 1,0
18.06.2019 07:00:00 10,7 8,0 0,0
18.06.2019 06:00:00 10,9 7,5 0,0
18.06.2019 05:00:00 10,9 6,0 0,0
18.06.2019 04:00:00 10,8 6,0 0,0
18.06.2019 03:00:00 11,0 5,9 0,0
18.06.2019 02:00:00 10,2 7,0 0,0
18.06.2019 01:00:00 10,7 7,0 0,0
18.06.2019 00:00:00 9,7 7,5 0,0
17.06.2019 23:00:00 11,3 6,7 0,0
17.06.2019 22:00:00 11,2 7,8 0,2
17.06.2019 21:00:00 12,0 8,2 0,0
17.06.2019 20:00:00 12,2 8,4 0,0
17.06.2019 19:00:00 11,7 8,3 0,2
17.06.2019 18:00:00 13,5 8,4 0,0
17.06.2019 17:00:00 12,1 9,5 0,2
17.06.2019 16:00:00 13,4 8,6 0,0
17.06.2019 15:00:00 14,3 8,9 0,2
17.06.2019 14:00:00 15,6 8,3 0,2
17.06.2019 13:00:00 15,9 9,3 0,2
17.06.2019 12:00:00 13,7 5,9 0,0
17.06.2019 11:00:00 12,1 5,9 0,0
17.06.2019 10:00:00 12,4 3,7 0,0
17.06.2019 09:00:00 11,5 7,4 0,2
17.06.2019 08:00:00 9,6 8,1 1,0
17.06.2019 07:00:00 9,1 7,1 0,0
17.06.2019 06:00:00 8,8 6,2 0,0
17.06.2019 05:00:00 8,1 5,0 0,2
17.06.2019 04:00:00 8,0 4,5 0,2
17.06.2019 03:00:00 7,6 3,7 0,0
17.06.2019 02:00:00 7,0 3,6 0,0
17.06.2019 01:00:00 6,6 4,4 0,0
17.06.2019 00:00:00 7,6 5,9 0,0
16.06.2019 23:00:00 9,5 7,0 0,0
16.06.2019 22:00:00 10,9 8,6 0,0
16.06.2019 21:00:00 12,3 8,3 0,0
16.06.2019 20:00:00 10,8 8,2 0,0
16.06.2019 19:00:00 12,2 8,7 0,8
16.06.2019 18:00:00 14,5 7,4 0,0
16.06.2019 17:00:00 14,4 7,1 0,0
16.06.2019 16:00:00 15,7 6,5 0,0
16.06.2019 15:00:00 14,3 7,4 0,0
16.06.2019 14:00:00 13,8 7,6 0,0
16.06.2019 13:00:00 15,2 7,7 0,0
16.06.2019 12:00:00 13,4 7,1 0,0
16.06.2019 11:00:00 13,3 7,1 0,0
16.06.2019 10:00:00 13,0 4,3 0,0
16.06.2019 09:00:00 12,3 8,6 0,0
16.06.2019 08:00:00 11,2 11,2 0,0
16.06.2019 07:00:00 9,8 8,7 0,0
16.06.2019 06:00:00 9,4 7,4 1,2
16.06.2019 05:00:00 9,3 7,2 0,2
16.06.2019 04:00:00 8,9 6,0 0,0
16.06.2019 03:00:00 8,8 4,9 0,0
16.06.2019 02:00:00 8,3 4,8 0,0
16.06.2019 01:00:00 8,3 6,1 0,0
16.06.2019 00:00:00 9,0 6,9 0,0
15.06.2019 23:00:00 10,3 8,1 0,0
15.06.2019 22:00:00 11,4 8,4 0,0
15.06.2019 21:00:00 14,0 10,0 0,0
15.06.2019 20:00:00 15,6 10,5 0,0
15.06.2019 19:00:00 16,0 10,5 0,0
15.06.2019 18:00:00 16,5 9,9 0,0
15.06.2019 17:00:00 16,3 10,1 0,0
15.06.2019 16:00:00 16,7 11,3 0,0
15.06.2019 15:00:00 15,0 11,3 0,0
15.06.2019 14:00:00 15,0 11,1 0,0
15.06.2019 13:00:00 14,6 10,9 0,0
15.06.2019 12:00:00 13,2 9,7 0,0
15.06.2019 11:00:00 14,0 9,1 0,0
15.06.2019 10:00:00 14,5 9,3 0,0
15.06.2019 09:00:00 13,5 5,8 0,0
15.06.2019 08:00:00 12,3 5,2 0,0
15.06.2019 07:00:00 11,1 7,2 0,0
15.06.2019 06:00:00 8,0 6,5 0,0
15.06.2019 05:00:00 7,4 6,5 0,0
15.06.2019 04:00:00 6,8 5,9 0,0
15.06.2019 03:00:00 6,2 5,2 0,0
15.06.2019 02:00:00 7,0 6,2 0,0
15.06.2019 01:00:00 7,7 6,7 0,0
15.06.2019 00:00:00 7,7 6,7 0,0
14.06.2019 23:00:00 8,0 6,6 0,0

tt = Temperatura
td = dewpoint
rr = precipitazioni

Stazioni seguenti

WeatherPro
AMSI
MeteoEarth